This is the latest recevied weather packets stored in our database for station/object KD2RHT-13. If no packets are shown the sender has not sent any weather packets the latest 10 day(s).
| Time | Temp. | Humidity | Pressure | Rain* | Wind** | Luminosity | Snow |
|---|---|---|---|---|---|---|---|
| 1777928067 | 22.78° C | 45% | 1005.6 hPa | 0 mm | - | 127 W/m² | - |
| 1777927765 | 22.78° C | 44% | 1005.6 hPa | 0 mm | - | 123 W/m² | - |
| 1777927463 | 22.78° C | 47% | 1005.6 hPa | 0 mm | - | 122 W/m² | - |
| 1777927162 | 22.78° C | 45% | 1005.6 hPa | 0 mm | - | 172 W/m² | - |
| 1777926859 | 22.78° C | 44% | 1005.6 hPa | 0 mm | - | 128 W/m² | - |
| 1777926555 | 22.78° C | 46% | 1006 hPa | 0 mm | - | 166 W/m² | - |
| 1777926252 | 22.78° C | 44% | 1006 hPa | 0 mm | - | 314 W/m² | - |
| 1777925948 | 22.78° C | 49% | 1006 hPa | 0 mm | - | 180 W/m² | - |
| 1777925646 | 22.78° C | 44% | 1006 hPa | 0 mm | - | 530 W/m² | - |
| 1777925343 | 23.33° C | 45% | 1006 hPa | 0 mm | - | 107 W/m² | - |
| 1777925040 | 23.33° C | 45% | 1006.3 hPa | 0 mm | - | 510 W/m² | - |
| 1777924737 | 23.33° C | 45% | 1006.3 hPa | 0 mm | - | 537 W/m² | - |
| 1777924432 | 23.33° C | 47% | 1006 hPa | 0 mm | - | 572 W/m² | - |
| 1777924129 | 23.33° C | 45% | 1006.3 hPa | 0 mm | - | 589 W/m² | - |
| 1777923825 | 22.78° C | 46% | 1006.3 hPa | 0 mm | - | 192 W/m² | - |
| 1777923521 | 22.78° C | 47% | 1006.3 hPa | 0 mm | - | 288 W/m² | - |
| 1777923218 | 23.33° C | 46% | 1006.7 hPa | 0 mm | - | 269 W/m² | - |
| 1777922917 | 23.33° C | 48% | 1006.7 hPa | 0 mm | - | 593 W/m² | - |
| 1777922614 | 23.33° C | 46% | 1006.7 hPa | 0 mm | - | 633 W/m² | - |
| 1777922313 | 23.33° C | 50% | 1006.7 hPa | 0 mm | - | 636 W/m² | - |
| 1777922010 | 23.33° C | 47% | 1006.7 hPa | 0 mm | - | 632 W/m² | - |
| 1777921705 | 23.33° C | 48% | 1007 hPa | 0 mm | - | 645 W/m² | - |
| 1777921402 | 22.78° C | 47% | 1006.7 hPa | 0 mm | - | 634 W/m² | - |
| 1777921098 | 22.78° C | 47% | 1007 hPa | 0 mm | - | 627 W/m² | - |
| 1777920795 | 22.78° C | 47% | 1007 hPa | 0 mm | - | 629 W/m² | - |
* Rain latest hour (hover to see other rain measurements)
** Current wind speed in m/s (hover to see current wind gust speed)